Location: Lourdes
(43.1000°N, 0.0500°W)
Time: 06:25:06
(UTC+00:00)

Meteor 1-5 Rocket - Pass Details

Date: 30 November 2020
Orbit: 788 x 916 km, 81.2° (Epoch: 27 January)

Event Time Altitude Azimuth Distance (km) Brightness Sun altitude
Rises 18:05:31 0° 353° (N) 3,549 7.4 -17.6°
Reaches altitude 10° 18:08:04 10° 358° (N) 2,593 6.6 -18.0°
Maximum altitude 18:13:54 57° 76° (ENE) 1,041 4.3 -19.1°
Drops below altitude 10° 18:19:30 10° 155° (SSE) 2,503 6.5 -20.1°
Sets 18:21:56 0° 159° (SSE) 3,416 7.3 -20.5°
